Neue Öffnungszeiten

Neue Öffnungszeiten in LOKALZEIT

Gültig ab 01.08.18!

Mo. – Fr.
07:00 bis 20:00

Sa., So. und Feiertage
09:00 bis 19:00

Andere Zeiten PPR!

PPR – Anfrage

Für Flüge über 14 t MTOW sowie Flüge ausserhalb der veröffentlichten Öffnungszeiten

+49 (0) 9292 / 977-261

Doppelnutzung

In Abstimmung mit dem Freistaat Bayern wird der Verkehrslandeplatz Hof-Plauen bis auf weiteres einer Doppelnutzung ab 01.09.2015 zugeführt.

 

Der Verkehrslandeplatz bleibt in seiner bisherigen Funktion zu den bekannten Betriebszeiten weiterhin für den allgemeinen Luftverkehr geöffnet.

Aufgrund der Parallelnutzung zum Test von Fahrerassistenzsystemen aus dem Bereich der Automobilentwicklung ergibt sich folgende Einschränkungen:

Taxiway „B“ zeitweise nicht nutzbar!

Tanken

TOTAL Agenturpreise in EURO

 

Aktuelle Preise, inkl. MwSt. €/100 Ltr.
- Avgas 100 LL, 241,00 €
- Jet A1 (inkl. Energiesteuer), 206,00 €
- Jet A1 (exkl. Energiesteuer), 128,11 €

 

Aktuelle Preise, exkl. MwSt. €/100 Ltr.
- Avgas 100 LL, 202,52 €
- Jet A1 (inkl. Energiesteuer), 173,11 €
- Jet A1 (exkl. Energiesteuer), 107,66 €

 

Gültig ab: 01. Juni 2018
(Änderungen vorbehalten!)

Flugplatzwetter

METAR:

EDQM 201750Z 34008KT 310V020 CAVOK 21/12 Q1020

Wetterwarnungen

Derzeit keine Wetterwarnungen für Hof vorhanden!

Aktuelle Wetterwarnungen für Hof